Wind_Gust
20 17 11 8 7 7 6 7 9 11 16 15 19 17 13 12 12 12 8 10 9 9 9 10 11 11 11 10 11 10 9 9 8 9 10 9 9 9 10 10 10 9 10 8 8 9 10 10 10 9 10 11 11 10 10 10 9 9 8 9 10 10 11 9 9 6 4 4 6 8 7 9 9 8 9 7 7 6 4 6 6 7 7 7 7
21 22 20 12 8 11 9 9 8 12 14 12 10 10 9 12 12 10 12 12 11 11 11 10 10 11 12 11 11 10 10 10 10 10 11 10 9 8 10 11 10 9 9 10 9 9 9 9 9 9 9 11 11 12 12 12 11 11 10 10 10 11 9 11 8 9 10 5 6 5 8 7 8 7 11 11 9 7 8 7 6 6 7 6 7
19 20 20 17 12 11 8 8 9 9 9 7 6 9 9 9 10 12 11 11 9 12 12 11 12 11 11 12 12 11 11 11 10 11 11 12 11 9 9 11 11 11 10 10 10 9 8 8 9 9 8 10 10 11 12 13 12 13 13 11 11 10 10 10 11 8 11 10 7 9 9 9 10 9 10 8 7 8 9 8 7 6 7 6 7
19 18 17 18 18 12 6 8 7 7 9 9 12 9 10 10 9 9 9 9 13 10 11 12 12 12 13 12 12 12 11 10 10 10 12 12 11 11 10 10 10 11 11 11 10 10 10 9 9 10 10 11 11 12 12 12 13 13 13 11 10 11 10 9 8 9 8 11 9 12 9 10 11 5 7 6 8 8 8 6 6 8 7 8 8
15 15 13 15 15 12 12 14 12 11 15 14 11 9 9 10 8 7 8 10 10 11 11 11 12 13 14 14 12 12 13 12 12 10 9 10 12 12 11 10 10 10 10 11 10 11 11 11 10 11 11 12 10 12 13 14 14 12 13 13 12 10 9 10 8 7 10 10 8 5 6 7 6 5 8 11 7 7 5 7 8 8 8 8 8
17 13 15 14 14 12 9 12 7 7 10 7 7 9 11 15 14 14 16 15 11 11 13 13 14 13 12 12 12 13 13 13 13 13 12 10 10 10 11 10 10 9 9 8 8 8 10 10 12 13 13 14 13 13 14 16 15 15 13 12 12 10 10 9 8 8 9 8 10 8 5 9 6 7 7 8 8 8 7 7 7 8 8 9 9
20 19 21 18 17 12 9 8 6 7 9 9 9 11 13 11 13 17 14 12 15 15 12 13 11 13 12 11 11 12 11 11 12 11 11 11 12 11 11 9 7 7 7 9 9 9 11 11 10 10 11 10 12 13 13 12 15 15 15 15 12 11 11 11 10 10 9 8 5 5 8 4 5 7 5 8 8 8 9 7 11 8 9 9 11
18 18 18 19 20 20 16 9 7 7 8 11 15 14 13 14 14 12 11 12 12 12 14 12 9 8 10 11 10 10 9 9 9 10 11 11 11 10 11 10 10 9 9 8 9 10 12 13 13 13 12 12 12 10 10 14 13 12 9 9 11 12 11 10 10 10 9 8 6 7 5 6 6 5 6 7 5 6 6 7 12 10 5 5 9
17 18 16 15 16 17 18 15 8 8 9 12 14 13 12 15 15 12 9 8 7 8 9 8 11 8 5 6 8 7 10 11 10 11 10 9 9 11 11 11 11 11 9 9 8 8 7 8 10 8 9 8 7 7 5 3 11 13 10 11 11 11 9 9 10 10 8 8 7 6 7 6 6 8 8 7 8 7 7 9 11 9 7 9 10
18 18 18 19 18 17 18 16 13 10 10 12 12 12 14 16 16 14 13 11 11 12 8 5 10 13 11 7 5 6 7 6 7 11 9 12 12 10 10 11 12 12 12 11 8 6 6 6 8 9 10 10 11 9 8 9 8 7 13 13 13 12 12 12 11 10 10 10 9 9 8 7 7 8 7 6 6 6 5 6 8 5 4 9 10
17 17 18 19 19 20 18 17 17 12 11 11 13 13 15 15 13 14 12 12 12 9 10 9 8 9 12 11 9 6 6 5 5 7 8 9 10 12 13 12 11 12 12 13 12 9 7 8 8 10 12 12 13 13 14 16 17 15 13 10 7 16 17 13 10 11 11 9 8 7 8 8 6 5 6 7 6 8 8 9 8 5 7 6 13
17 18 18 19 19 20 20 18 17 15 10 11 13 15 14 15 15 17 15 13 11 9 11 9 8 9 9 8 9 9 7 3 4 5 7 8 8 14 13 14 13 12 12 12 12 11 10 10 8 8 10 14 16 16 16 17 20 21 20 18 17 14 7 12 14 11 10 13 10 8 9 9 8 9 6 6 5 5 7 8 8 8 7 6 7
18 19 19 19 20 20 19 18 17 17 13 11 10 13 13 12 14 14 13 12 10 11 10 9 9 8 10 11 8 6 5 3 3 5 7 9 12 13 12 13 14 12 11 12 13 13 12 13 12 10 10 14 14 15 18 18 17 21 21 21 19 17 17 16 10 11 14 14 14 8 7 8 9 5 6 6 5 5 7 5 5 7 7 7 11
19 19 20 20 19 20 20 18 17 16 16 10 7 8 9 11 8 11 11 9 11 9 9 9 8 8 7 8 8 6 5 6 4 7 10 13 14 12 13 14 13 13 12 11 11 10 10 14 15 13 9 9 9 12 14 15 15 16 17 17 16 17 16 16 15 14 11 14 14 12 6 6 9 7 7 6 8 7 7 7 6 5 7 11 8
19 20 21 22 22 21 20 19 18 19 17 16 8 6 7 9 14 13 13 10 9 10 10 11 9 9 9 8 8 8 7 8 8 11 13 16 17 13 16 16 16 15 14 12 12 11 10 11 14 14 11 9 9 7 14 15 16 16 17 16 16 14 14 14 12 10 11 10 11 12 10 7 7 7 7 7 8 6 5 4 6 7 6 6 9
19 20 21 22 21 22 20 18 18 19 19 18 19 17 14 11 15 16 16 15 13 13 16 11 11 11 10 9 9 10 10 11 9 9 16 18 19 16 16 18 18 17 16 13 13 12 13 14 15 14 11 9 8 9 8 11 16 17 17 14 14 13 13 8 7 8 10 10 10 10 9 7 4 7 6 5 5 5 4 7 6 5 4 5 7
21 20 20 21 21 21 20 19 18 18 17 18 19 19 17 14 17 15 22 19 17 17 19 13 11 13 14 12 11 11 11 12 11 9 14 20 17 18 18 17 17 17 16 12 12 13 12 11 13 14 13 12 9 10 10 8 14 16 16 15 12 14 12 8 8 10 10 10 10 9 8 8 6 5 3 2 5 5 6 6 7 5 7 7 8
19 21 20 20 19 20 20 19 19 17 18 19 18 19 18 16 20 18 21 22 23 20 19 15 15 16 16 16 12 12 13 14 13 10 10 11 16 22 18 20 16 17 15 13 13 15 16 17 13 13 14 11 9 12 10 12 15 13 15 15 14 13 9 7 7 9 7 10 11 13 13 11 11 11 12 11 8 3 7 9 5 5 7 7 7
19 19 19 18 18 19 19 20 19 18 17 17 17 18 18 15 16 17 21 20 19 17 21 19 17 19 18 16 17 16 14 14 16 14 13 11 14 18 20 20 20 15 16 15 12 13 14 13 15 12 12 11 13 13 11 11 14 12 13 15 14 11 6 5 7 9 9 11 10 10 13 10 11 12 14 14 13 11 11 8 5 7 8 6 6
16 16 18 19 18 19 19 20 20 19 17 15 18 19 16 14 16 18 18 20 19 16 18 20 20 19 19 20 18 16 17 17 18 18 15 14 11 14 15 23 20 17 13 16 16 12 12 11 12 11 11 13 14 14 13 12 11 8 9 12 14 11 7 8 7 9 10 11 10 10 10 9 10 10 11 12 12 12 12 11 8 7 7 7 6
16 16 17 19 20 20 20 19 20 20 17 15 15 17 18 15 13 18 18 18 19 19 21 19 20 20 20 19 19 20 19 16 19 20 18 17 13 10 14 15 15 16 14 13 13 13 13 11 9 10 10 12 14 15 15 14 10 12 10 9 7 10 7 10 9 7 12 11 11 11 10 10 11 11 11 11 11 11 11 11 11 10 9 8 7
17 16 19 19 19 20 20 20 18 18 18 15 14 16 13 14 16 17 16 16 19 19 19 19 19 18 18 18 18 18 19 23 17 20 21 20 18 15 14 12 11 16 15 13 12 13 11 10 8 8 11 12 15 15 16 15 13 13 13 9 11 11 12 9 9 11 11 11 12 12 11 10 10 10 10 11 11 11 10 10 10 10 9 9 8
16 17 18 20 19 19 19 20 19 18 17 16 15 15 13 14 15 17 17 17 19 21 19 18 18 17 17 17 16 17 16 18 21 19 19 21 21 19 16 12 10 13 17 14 11 10 8 8 9 11 12 13 14 14 14 16 13 13 12 12 12 12 10 11 11 13 13 12 12 12 10 9 9 9 10 10 9 8 8 8 8 9 9 8 8
17 19 19 19 19 19 18 19 20 18 18 16 16 16 16 15 15 14 15 16 18 19 16 16 17 18 16 15 16 15 15 14 16 20 20 22 20 20 19 18 16 15 15 13 8 8 9 8 10 13 13 15 16 16 16 14 15 13 13 13 12 10 13 13 14 14 12 13 13 11 10 9 8 9 10 9 9 9 7 7 8 8 9 8 8
18 19 19 19 20 17 18 20 20 19 18 18 18 17 16 14 16 14 14 16 16 17 15 15 17 15 15 14 14 14 14 14 14 16 18 18 19 18 18 18 15 14 15 11 10 10 10 14 16 15 15 17 18 18 16 16 16 15 15 13 11 13 14 14 12 12 14 12 10 9 8 8 8 7 7 7 7 8 7 8 7 7 6 6 8
19 18 17 18 18 17 18 18 19 19 19 18 17 16 16 16 15 13 13 14 14 15 13 13 14 13 13 11 12 12 13 13 14 14 11 11 12 15 16 17 18 18 17 16 14 15 15 15 15 14 13 12 17 17 16 17 16 18 17 14 14 13 12 12 11 14 12 10 10 10 8 7 7 8 7 7 11 12 9 7 7 9 9 6 8
17 17 17 15 15 17 18 18 17 19 18 17 18 17 17 16 16 16 14 12 12 11 11 11 10 11 11 10 10 10 12 13 13 12 12 10 11 10 12 14 13 15 16 14 13 14 16 16 17 16 16 19 18 14 13 12 17 16 15 13 12 12 11 11 11 12 10 10 9 8 6 6 4 8 10 11 11 10 9 7 8 9 8 7 9
14 14 14 14 15 15 16 13 15 16 17 18 19 19 16 15 15 14 13 11 9 10 11 12 12 10 10 9 8 9 9 9 11 12 11 9 8 9 9 10 11 11 14 12 12 11 14 9 12 13 15 17 16 15 15 14 13 13 13 12 12 12 11 10 10 12 10 8 8 7 8 9 10 9 9 12 12 11 10 10 8 9 10 6 8
13 13 13 14 14 13 14 15 15 15 14 16 17 16 15 14 13 13 13 11 10 10 10 10 9 8 9 10 10 10 10 12 12 6 7 6 9 9 9 9 10 11 9 8 13 10 12 14 14 14 15 15 13 14 12 13 13 12 13 12 12 12 13 13 14 12 8 10 12 11 10 10 11 10 11 12 12 10 9 9 9 9 8 10 11
12 13 12 12 11 12 12 13 13 14 14 14 13 15 14 17 14 14 13 13 16 15 9 9 6 5 10 9 7 8 6 6 5 9 10 11 12 10 9 9 7 9 9 9 7 15 13 14 12 12 11 12 13 11 10 10 11 13 13 9 13 13 11 11 10 9 9 11 10 12 11 11 11 10 11 11 10 12 11 10 10 9 11 10 10
9 10 11 11 9 8 9 11 10 12 12 12 11 11 12 17 17 18 15 15 15 15 14 12 11 10 7 9 9 12 9 9 10 8 10 11 12 12 11 10 9 8 4 9 15 13 13 15 12 12 11 12 12 10 9 10 10 11 10 10 10 11 10 11 9 7 10 11 11 9 9 12 11 10 12 11 10 9 10 9 8 9 9 7 8
8 8 8 7 9 8 6 8 9 10 10 10 11 10 11 12 15 15 17 17 17 17 16 14 11 10 10 9 8 10 10 8 9 10 10 12 12 12 12 11 10 10 6 10 16 11 10 13 12 10 9 12 9 9 8 9 8 9 9 12 12 10 11 11 7 10 9 10 10 9 10 10 10 9 9 8 7 9 9 10 10 9 8 8 8
8 8 8 8 7 7 7 7 8 8 8 9 9 8 9 10 12 11 14 12 16 18 18 17 15 13 13 14 12 9 7 7 8 9 10 11 13 14 15 14 11 7 11 15 15 12 10 11 11 9 9 10 7 8 9 9 10 10 10 11 10 8 9 6 4 12 9 8 9 9 8 8 7 7 6 6 8 8 8 8 8 8 9 10 8
6 6 6 7 7 7 7 6 6 6 7 7 7 7 6 7 6 6 9 10 13 13 13 17 16 14 14 13 11 10 10 9 9 9 10 11 11 12 13 15 17 15 13 13 13 13 10 12 10 9 8 8 8 8 9 9 9 10 10 10 9 9 9 7 11 9 9 10 10 7 6 5 4 7 7 6 6 7 9 6 8 9 10 9 7
5 6 7 6 7 6 6 6 5 5 5 6 7 6 6 5 5 6 6 7 8 9 8 11 13 13 12 9 10 11 11 11 11 10 10 10 10 11 11 14 13 12 14 11 11 11 11 10 10 7 8 9 7 9 10 9 9 10 10 9 9 9 8 10 9 9 9 7 6 5 4 5 5 5 7 8 9 10 8 8 8 8 7 7 7
7 7 7 8 9 8 7 6 4 6 6 5 4 6 4 4 5 5 4 6 6 6 6 8 6 6 11 12 12 11 12 12 12 11 10 9 8 7 11 9 11 10 10 8 10 9 9 8 9 8 8 9 9 9 8 10 10 10 8 9 8 9 9 9 7 7 5 6 4 2 5 6 6 5 5 8 8 7 6 6 5 4 4 5 4
7 7 8 6 5 7 7 7 6 3 6 7 6 5 6 5 5 5 5 6 6 5 5 5 5 7 7 8 8 9 10 11 11 12 12 12 12 13 11 8 10 9 10 8 8 9 10 8 8 9 9 10 9 9 9 10 9 9 9 10 9 9 7 5 4 4 6 7 7 8 7 6 6 5 6 9 6 6 5 5 4 5 5 4 3
4 5 4 3 5 6 7 7 7 5 3 5 5 6 5 5 5 3 4 5 4 4 5 5 5 5 5 4 7 6 6 7 10 11 10 10 13 11 10 9 9 10 9 8 7 9 9 7 7 9 8 9 9 9 10 10 9 9 9 8 7 6 5 6 4 6 6 9 9 8 7 7 7 6 7 10 7 6 6 6 6 7 5 7 7
5 4 6 5 4 4 6 7 6 6 4 3 4 5 6 5 4 4 4 3 4 3 2 4 4 4 3 5 6 6 8 10 9 8 8 8 8 7 8 9 9 10 8 7 7 8 8 9 7 8 9 9 10 9 9 8 7 7 6 8 7 6 8 8 8 8 9 8 8 6 8 7 7 7 6 8 7 5 5 5 6 6 7 7 6
5 6 4 4 4 4 4 7 6 5 3 5 4 4 4 4 5 4 3 3 2 2 2 3 5 5 5 6 4 6 9 6 5 5 6 7 7 7 8 7 7 7 7 7 8 8 9 8 8 9 10 9 9 9 8 7 7 6 6 8 9 9 7 6 8 9 7 5 6 6 8 7 5 5 7 8 5 4 6 7 5 5 5 5 6
3 3 4 4 3 2 3 4 5 3 3 2 3 5 6 4 2 4 3 3 4 3 4 5 6 5 5 7 4 4 8 5 5 4 5 5 5 6 7 6 6 7 7 7 7 8 9 9 9 8 7 7 7 7 6 7 7 7 8 8 9 8 7 7 6 6 5 5 6 7 6 6 5 7 8 4 3 4 3 4 5 5 4 4 5
2 5 8 7 4 4 2 2 2 2 3 2 2 3 2 2 2 4 4 4 4 3 3 5 5 6 6 5 3 4 8 6 4 5 4 5 6 6 6 6 6 6 6 6 7 8 8 9 7 6 6 6 7 7 7 7 7 9 8 8 8 7 8 6 5 4 5 6 6 5 5 5 6 6 4 4 4 4 6 7 5 4 5 5 5
1 2 4 5 8 7 3 2 2 4 2 2 2 3 4 4 4 4 5 5 4 5 5 5 3 5 6 4 4 4 6 5 3 4 3 3 5 4 5 4 4 5 5 6 7 7 8 8 7 5 5 5 4 5 8 8 8 8 8 7 7 8 6 4 5 5 5 5 5 4 4 4 6 6 6 6 4 5 5 5 5 6 5 5 7
4 6 6 7 7 6 4 5 5 4 3 2 2 4 5 5 5 4 5 4 4 4 5 3 2 3 3 4 4 4 5 5 4 3 3 3 3 2 2 2 4 5 5 6 5 5 7 9 8 6 5 5 4 6 6 6 5 7 8 9 7 6 5 4 3 3 3 5 5 5 5 5 6 5 6 6 5 7 7 6 7 6 6 7 6
5 7 7 9 10 7 5 3 6 5 3 3 3 3 4 6 5 5 5 6 6 4 3 4 2 3 3 3 3 3 4 5 5 4 3 4 3 3 2 2 2 4 5 4 3 5 7 8 7 6 6 4 5 6 7 6 5 4 4 8 9 7 5 4 3 4 5 4 6 6 5 6 6 5 5 3 4 4 5 4 4 4 6 6 7
2 4 7 8 9 8 6 3 3 5 3 1 1 1 1 4 5 6 5 4 3 3 3 3 3 4 4 4 6 5 5 6 7 5 5 4 4 4 3 3 2 2 4 4 4 5 6 6 7 8 8 5 6 6 5 5 5 4 3 3 4 5 3 3 4 4 5 5 5 5 5 4 4 4 3 3 2 2 2 2 2 3 3 4 4
5 6 6 7 7 5 6 3 2 2 3 3 3 1 2 4 4 3 4 4 2 2 3 6 7 8 7 7 7 7 7 5 6 6 7 7 6 6 4 3 2 3 3 3 3 5 7 6 6 7 7 5 5 5 4 4 3 3 3 3 2 2 2 3 4 4 4 4 4 4 4 4 3 3 4 3 3 3 2 3 3 4 4 3 3
6 5 6 4 4 7 8 9 11 7 8 6 6 4 4 4 3 3 5 6 5 5 6 7 8 7 7 9 7 7 7 6 7 6 4 4 4 4 4 4 4 4 4 4 3 4 4 5 6 6 7 6 5 5 4 3 3 3 3 3 3 2 2 2 3 4 3 3 4 3 3 4 3 2 2 3 3 2 4 6 6 5 5 5 4
5 4 3 5 8 7 8 9 8 9 9 9 8 7 6 6 4 3 4 3 6 8 8 8 8 9 9 8 8 9 8 7 6 7 6 5 4 4 4 4 3 2 3 4 2 2 4 4 5 5 6 5 5 5 4 3 3 2 2 2 2 4 5 5 4 4 5 3 4 5 4 4 4 3 3 4 3 3 3 2 3 4 4 3 3
2 1 3 6 6 4 3 3 4 7 8 8 7 7 7 6 7 7 5 3 4 5 7 8 8 8 8 7 8 9 9 10 10 9 8 6 5 4 5 5 4 3 3 3 3 3 3 3 4 5 5 5 5 4 4 4 3 3 2 2 3 5 6 6 6 6 6 4 3 3 4 4 5 5 5 4 4 4 4 3 2 4 2 3 3
1 2 3 4 5 4 3 4 6 6 8 8 7 6 5 5 6 6 6 5 6 7 7 8 8 7 6 7 6 8 11 11 10 10 10 8 8 6 6 6 6 5 4 2 3 4 5 4 5 6 6 7 6 6 6 5 4 4 3 4 5 6 7 7 7 7 6 3 3 3 3 3 3 4 4 5 4 4 4 3 3 3 3 3 3
Wind_Speed
12 10 6 3 2 3 4 5 5 6 10 9 7 5 4 5 6 7 5 6 5 6 6 6 6 6 7 6 7 6 6 6 5 6 6 6 5 6 6 6 7 5 6 5 5 6 6 6 6 5 7 7 6 6 5 6 6 5 5 5 5 5 6 5 5 3 1 1 2 3 3 4 3 4 4 3 3 2 1 2 2 2 2 2 2
11 11 12 8 5 7 5 3 3 3 2 2 4 3 3 5 6 5 7 7 6 7 7 6 6 7 7 7 7 7 7 7 6 6 6 6 6 5 6 7 6 6 6 6 5 5 5 6 5 6 6 7 7 7 7 6 6 6 5 6 6 6 5 5 4 5 6 2 3 2 3 3 3 3 6 6 5 3 3 3 2 2 2 2 2
9 9 9 10 8 5 4 3 2 1 1 2 4 6 6 6 5 6 6 6 6 7 7 7 7 7 7 7 7 7 7 7 6 7 7 7 7 6 6 7 7 7 6 6 6 5 5 5 6 6 5 6 7 6 7 7 7 7 7 6 6 6 6 5 5 4 6 5 3 4 4 4 5 4 5 3 3 3 4 4 3 2 2 2 3
11 10 9 10 11 6 4 6 5 5 3 6 9 7 6 6 6 6 6 5 7 6 7 8 7 8 8 7 8 7 7 6 7 6 8 8 7 7 7 7 7 7 7 7 6 6 6 6 5 6 6 7 7 7 7 7 7 6 8 6 6 7 6 5 5 4 4 6 5 4 4 5 4 1 2 2 3 3 3 2 2 3 3 3 3
9 9 8 9 10 8 7 5 0 4 7 4 5 5 6 6 5 4 1 3 6 7 7 7 7 8 8 8 8 8 8 8 7 7 6 6 7 7 7 7 7 7 7 7 6 7 7 7 7 7 7 7 7 7 7 9 8 6 7 7 7 6 5 5 5 4 5 6 4 1 2 2 1 1 4 4 3 2 1 3 3 3 3 3 3
8 7 6 8 8 8 6 4 2 4 5 5 5 6 6 6 5 6 9 9 5 5 7 7 8 8 7 7 8 8 8 8 8 8 8 7 6 7 7 7 7 6 5 5 5 5 6 7 7 8 8 8 8 7 8 10 9 8 8 7 6 6 6 5 5 5 5 4 5 4 2 4 2 2 3 4 4 3 3 2 3 3 3 4 4
10 8 9 9 9 8 6 5 3 5 4 4 5 6 6 6 7 8 6 7 9 9 6 7 7 8 8 7 7 7 7 7 7 7 7 7 7 7 7 6 5 5 5 6 6 6 6 6 6 6 7 6 7 8 8 8 8 10 9 9 7 7 6 6 6 6 5 4 2 2 3 1 2 3 2 4 4 3 4 3 5 2 3 3 5
10 10 10 10 9 10 10 6 4 4 4 6 7 6 6 7 8 7 7 7 7 7 7 8 6 5 6 7 6 6 6 6 6 6 7 7 7 7 7 6 6 5 5 5 6 6 7 8 8 8 8 7 7 7 6 8 7 8 6 6 6 7 7 5 6 5 5 4 3 4 2 3 2 2 2 3 2 1 1 2 6 4 1 1 4
10 10 9 9 9 10 10 9 5 4 5 7 7 7 7 8 9 8 6 5 4 5 3 3 7 6 4 4 5 5 6 6 5 6 6 6 6 7 7 7 7 7 6 5 4 5 5 5 6 5 6 5 6 5 4 2 6 7 6 7 7 6 5 5 5 5 4 5 3 3 4 3 3 4 4 3 4 3 3 5 5 4 3 4 4
10 10 11 10 10 10 9 9 8 5 5 6 7 7 8 9 9 8 8 7 7 6 4 3 5 8 7 5 3 4 4 4 6 10 8 7 7 6 6 7 7 8 7 6 4 3 3 3 4 7 8 8 6 7 6 5 4 4 7 8 8 7 7 7 6 6 6 5 5 5 4 4 3 4 3 3 3 3 2 3 3 1 1 4 5
10 10 11 11 11 11 10 9 9 7 6 6 7 8 9 8 7 8 7 7 7 5 4 6 5 5 7 7 6 4 4 3 4 7 8 9 7 7 8 7 7 7 8 8 7 5 4 4 4 6 7 7 9 10 9 10 10 11 9 7 6 9 10 8 6 7 6 5 3 4 4 4 2 1 3 3 2 4 4 4 4 2 3 2 5
9 11 11 11 11 12 11 11 9 9 6 6 8 9 8 7 8 8 7 7 6 6 5 6 5 5 5 5 6 5 4 2 4 5 6 7 7 8 8 8 7 7 7 7 6 6 6 5 4 4 5 7 8 9 10 12 14 14 14 12 11 9 6 6 8 6 6 6 5 4 5 5 4 4 3 3 2 2 2 4 4 4 3 3 2
10 10 11 11 12 11 11 11 10 10 8 7 6 8 8 7 7 7 7 6 6 7 5 6 5 4 6 7 5 4 4 2 2 4 6 8 11 10 7 8 8 7 6 6 6 6 6 6 6 5 5 11 8 8 10 11 12 16 16 17 16 14 14 13 9 7 7 8 8 5 3 4 5 2 2 3 2 1 0 1 2 3 3 3 4
11 11 11 12 12 11 12 11 10 9 10 6 5 5 6 6 4 3 4 5 6 6 5 6 5 4 4 5 5 4 3 4 2 6 8 11 12 10 8 8 8 7 7 6 6 6 5 7 7 7 5 5 5 7 8 8 8 9 10 10 9 11 13 13 13 11 7 8 9 7 2 3 4 3 3 2 3 2 2 2 1 2 2 5 3
11 12 13 12 12 11 12 11 9 10 9 9 5 1 2 5 5 5 5 5 5 5 6 7 5 5 6 5 5 4 4 4 7 9 11 13 14 11 9 8 8 9 8 7 7 6 5 6 8 8 6 5 4 5 8 9 10 9 10 9 9 8 8 8 7 6 6 6 7 7 5 2 3 3 3 3 4 1 1 1 2 2 1 2 4
11 12 13 13 12 11 11 11 11 10 11 10 11 10 9 7 6 5 7 7 7 7 6 7 6 7 6 6 6 6 6 7 8 9 13 15 15 9 9 9 9 9 8 7 7 7 7 8 8 8 6 5 6 8 7 7 9 9 9 8 8 7 7 4 5 6 6 5 5 6 4 3 3 3 2 2 1 0 1 3 2 2 1 1 2
12 12 12 12 13 12 11 11 11 11 10 11 11 11 10 8 7 5 10 9 10 10 7 6 6 7 9 7 7 6 6 8 9 8 12 17 13 9 10 8 9 9 8 6 7 7 6 5 7 6 5 5 5 9 8 7 8 9 8 7 6 7 6 4 6 9 9 9 9 8 7 7 6 5 3 2 2 2 2 3 2 0 2 1 1
11 12 12 12 11 11 12 11 11 10 10 11 10 9 9 8 8 7 9 10 11 9 8 8 9 8 10 10 7 7 7 10 10 9 8 10 13 11 9 9 9 8 7 7 7 7 9 13 8 7 7 5 8 11 9 9 9 8 9 10 9 8 5 3 3 5 7 9 10 11 11 9 9 10 11 10 7 1 3 4 0 1 2 2 2
10 11 10 10 11 11 11 12 12 10 10 10 10 10 9 8 6 7 8 10 10 9 11 10 10 9 10 10 13 10 8 10 13 11 12 9 9 9 9 8 10 8 9 9 7 6 6 8 11 9 7 8 11 10 9 9 8 8 8 9 8 7 2 1 3 5 5 7 6 6 8 8 7 7 8 12 11 9 6 3 2 2 3 2 2
9 9 10 10 10 11 11 12 12 11 10 9 10 10 8 8 7 10 8 9 10 9 10 11 12 9 10 12 10 10 10 9 11 14 12 12 8 7 8 12 9 9 8 8 9 7 6 6 8 10 9 11 12 12 10 9 7 5 5 7 8 6 3 3 3 5 6 6 6 6 7 5 5 5 6 7 7 7 6 5 4 3 3 3 2
9 9 9 11 12 12 11 11 12 12 10 8 7 9 9 8 6 9 8 8 10 9 11 11 12 10 10 11 11 12 10 9 11 17 15 13 11 8 7 8 8 8 8 7 7 7 6 6 3 8 9 10 11 12 12 12 9 7 6 5 3 6 5 5 5 6 7 7 6 6 6 6 6 5 6 5 5 5 5 5 5 4 4 3 3
10 10 11 11 11 11 12 11 11 10 10 9 8 9 7 8 7 7 8 9 11 10 9 11 11 10 10 11 10 10 12 16 10 15 16 16 15 12 8 7 6 9 8 6 6 6 6 5 4 6 10 10 12 13 13 12 11 7 7 8 9 10 7 6 5 6 6 6 7 7 6 6 5 5 5 5 5 5 5 4 4 4 4 3 3
10 10 11 12 11 11 11 12 11 9 9 9 9 9 7 8 7 9 10 9 10 10 10 10 10 9 9 9 8 9 9 10 16 12 15 16 16 15 13 8 8 7 8 7 6 6 4 5 4 8 11 11 11 11 11 12 10 8 10 11 10 10 8 6 7 7 7 6 7 6 4 4 4 4 4 4 4 3 3 3 3 4 4 4 3
10 11 11 11 11 11 10 10 10 10 11 9 9 9 9 8 8 8 7 8 9 10 9 9 9 10 9 8 8 8 7 7 11 14 12 15 14 15 14 14 12 9 8 7 4 4 4 5 6 11 11 11 13 13 12 11 10 11 11 11 10 8 7 7 7 7 7 7 7 5 4 3 3 3 4 3 3 3 2 3 3 4 4 3 3
11 11 11 11 11 9 10 10 9 10 10 10 10 10 10 9 9 8 8 8 9 9 7 8 9 8 8 8 7 7 7 7 8 11 15 15 16 15 14 14 12 12 9 6 6 5 7 11 13 13 13 13 15 15 13 13 13 12 12 11 9 6 7 7 7 7 8 7 5 4 3 3 3 2 2 2 2 3 3 4 3 3 2 2 4
11 10 10 10 10 10 10 10 10 11 11 10 9 9 9 9 8 7 7 7 7 8 7 7 7 7 7 6 6 6 7 7 7 8 8 9 10 13 13 14 15 15 13 10 12 12 12 12 12 12 10 9 9 9 8 9 13 14 13 10 7 7 7 7 7 7 6 4 4 4 3 2 2 3 3 3 5 6 4 3 3 5 3 2 4
10 10 10 9 9 10 11 9 9 10 11 9 9 9 8 9 9 8 7 6 6 6 6 6 6 6 6 5 5 5 6 6 6 6 5 4 3 2 5 8 10 11 9 8 9 8 10 8 9 12 12 15 14 12 10 9 10 8 7 6 6 5 5 5 5 6 5 5 4 3 2 2 1 3 4 5 5 4 4 2 3 3 3 3 4
8 8 9 8 8 8 9 10 10 8 9 10 10 9 8 7 8 8 7 6 5 5 6 7 6 6 5 5 4 5 5 5 6 6 6 5 3 4 5 6 6 6 8 7 7 7 7 7 8 7 8 9 9 8 6 6 7 7 6 5 5 5 6 8 7 6 5 4 4 3 3 3 4 4 3 5 5 4 4 4 3 4 3 2 3
8 8 8 8 8 7 7 8 8 8 8 8 9 9 8 7 7 7 7 5 5 5 5 6 5 5 5 5 5 5 6 6 7 5 4 4 5 5 5 5 6 6 6 7 7 5 5 6 7 7 8 8 7 7 6 7 7 6 6 5 5 5 5 5 6 5 4 4 5 5 4 4 4 4 5 6 5 5 3 3 4 3 3 4 4
7 7 7 7 7 7 7 7 7 7 8 7 7 8 11 14 10 7 7 10 13 11 7 5 3 3 5 5 4 4 3 3 4 7 7 8 9 9 7 8 7 6 7 8 5 6 5 6 5 6 5 6 6 6 5 4 4 4 6 5 5 6 5 5 5 4 4 5 4 5 5 4 6 5 5 5 4 5 5 6 4 3 4 4 3
6 6 6 6 6 5 5 6 6 6 6 6 6 6 6 9 14 14 12 12 13 13 12 10 9 8 4 4 5 9 7 6 7 7 8 9 9 9 9 8 8 7 4 5 6 5 5 7 5 6 5 6 6 4 4 5 5 5 4 4 4 6 4 5 4 3 4 6 6 5 4 5 4 4 6 6 5 4 4 4 3 4 3 2 3
5 5 5 5 5 5 4 4 5 6 6 6 6 5 5 6 7 11 13 14 14 14 14 12 10 8 8 6 4 5 7 7 7 8 9 10 10 10 10 9 8 8 5 7 7 5 4 6 6 5 5 6 5 5 4 4 3 3 3 4 4 3 5 5 3 5 4 5 5 4 4 4 4 4 4 4 3 4 3 3 3 3 3 3 3
5 5 5 5 5 5 5 4 4 4 5 5 5 5 5 6 6 6 7 9 12 14 15 14 12 11 11 11 10 7 6 6 7 7 7 8 9 10 11 11 9 5 7 8 7 6 5 5 6 5 5 5 3 4 3 3 4 4 4 4 4 3 4 3 2 6 5 4 4 4 3 3 3 3 2 1 2 2 2 2 2 3 3 3 2
4 4 4 4 4 4 4 4 4 3 4 4 4 5 3 4 4 4 5 6 6 8 11 14 12 10 11 10 9 8 8 8 8 8 8 7 8 9 10 9 13 12 9 6 6 6 5 6 6 5 4 4 4 3 4 4 4 4 4 5 4 4 4 3 5 5 4 4 5 4 3 2 1 2 2 1 1 2 3 2 2 2 3 2 2
3 4 6 5 4 4 3 4 3 3 3 4 4 4 4 3 3 4 3 4 5 5 4 6 9 11 8 7 8 9 9 9 9 9 9 8 8 8 9 7 7 6 7 6 5 5 5 6 6 4 4 4 3 3 5 5 5 5 4 4 4 5 3 5 4 5 4 3 3 2 1 1 1 1 2 3 3 3 2 2 2 2 3 2 2
4 5 4 5 5 5 4 4 2 3 4 3 3 3 3 3 3 3 3 4 4 4 3 4 4 5 10 10 10 10 10 10 10 9 8 8 6 5 5 4 5 5 5 4 5 5 5 4 5 4 4 5 4 5 4 5 5 5 4 4 4 4 4 3 3 4 3 2 2 0 1 2 1 1 2 3 3 2 2 2 2 2 2 2 1
4 4 5 4 3 4 4 4 3 1 2 3 3 3 3 3 3 3 3 4 4 3 3 3 3 4 5 5 5 7 9 9 9 10 10 9 10 8 5 4 4 4 5 4 4 5 5 4 4 5 5 5 4 4 3 5 4 4 4 4 4 4 3 2 2 1 2 2 2 3 3 2 2 2 2 3 2 2 2 2 2 2 2 2 1
3 4 3 2 2 3 4 4 4 4 2 2 3 3 3 3 3 2 3 3 3 2 3 3 3 3 3 3 4 4 4 6 9 9 8 8 7 5 4 4 5 5 4 3 3 4 4 3 3 4 3 4 4 4 4 4 3 3 4 4 3 3 3 2 2 3 3 3 3 2 2 3 2 2 2 3 3 2 2 2 2 2 2 3 3
3 4 5 4 4 3 4 4 4 4 3 3 2 2 3 3 3 3 3 2 2 2 1 2 3 2 2 3 3 4 5 5 4 4 4 4 4 3 4 5 5 5 4 3 3 4 4 4 3 3 4 4 4 4 4 3 3 3 3 3 3 2 2 2 3 3 3 3 2 2 2 2 2 2 2 3 3 2 2 2 3 3 3 2 2
3 3 3 3 3 3 3 3 4 3 2 3 2 2 2 2 2 2 2 1 1 0 1 2 3 3 3 3 3 3 5 3 2 2 3 3 3 4 5 3 3 4 3 3 3 3 4 3 3 4 4 4 4 4 3 3 3 3 2 3 3 4 3 2 2 3 3 2 2 2 2 2 2 2 2 3 2 1 2 3 2 2 2 1 1
2 2 3 3 2 1 2 2 2 2 2 2 2 1 1 0 1 2 2 2 2 2 2 3 3 3 3 4 4 2 3 2 2 2 2 2 2 3 3 3 2 4 3 3 2 3 3 3 3 3 3 3 3 3 2 2 3 2 3 3 3 3 2 2 2 2 2 2 2 2 2 2 1 2 3 1 0 0 1 2 1 1 1 1 1
1 3 5 4 3 2 1 1 1 2 2 2 2 1 1 1 2 2 2 2 2 2 2 3 3 3 4 5 3 2 3 3 2 2 2 3 3 3 2 3 3 2 2 2 3 3 2 4 3 3 3 2 3 3 2 3 3 3 3 3 3 3 3 2 2 2 2 2 2 2 2 2 3 3 2 0 0 0 1 2 1 0 1 1 1
1 2 3 4 5 4 1 1 1 2 1 1 2 2 3 3 3 3 3 3 3 3 2 3 2 3 3 4 3 3 3 3 2 1 1 1 2 2 2 2 1 2 2 2 3 2 3 3 3 2 2 2 2 2 3 3 3 3 3 3 3 3 2 1 1 1 1 2 2 2 2 1 2 2 2 2 2 2 2 1 2 2 1 2 2
3 4 5 5 5 4 3 2 3 2 2 2 2 3 4 4 3 3 3 3 2 2 2 2 0 1 1 2 2 2 2 2 2 1 1 1 1 1 1 1 1 1 2 2 2 2 3 3 3 2 2 2 1 2 2 2 2 3 3 3 3 2 2 1 1 1 1 2 2 2 2 2 2 1 2 2 1 2 2 2 2 2 2 2 1
3 4 5 6 6 4 2 1 1 3 2 2 2 2 3 4 3 3 3 4 3 2 1 2 0 1 1 1 1 1 2 2 2 2 1 1 0 0 0 0 0 1 1 2 1 1 3 3 3 3 3 2 1 2 2 2 2 2 1 2 3 3 2 1 1 1 2 2 2 2 2 2 2 2 2 1 1 1 1 1 1 2 2 2 2
1 3 5 5 6 5 4 2 1 1 2 1 1 1 0 3 3 4 4 3 2 2 0 2 2 2 2 2 3 3 2 3 3 2 2 1 1 1 1 0 0 0 1 2 1 2 2 3 3 3 3 2 2 2 2 2 2 1 1 1 1 2 1 0 0 1 2 2 1 1 1 2 1 1 1 0 0 0 0 0 0 0 1 1 1
3 4 4 4 4 4 4 2 1 2 1 1 1 0 1 2 2 2 3 3 2 1 2 3 4 4 3 4 3 4 4 3 3 3 4 4 3 3 2 1 1 1 1 1 1 2 3 3 2 3 3 3 2 3 2 1 1 1 1 0 0 0 0 0 1 2 2 2 1 1 1 1 1 1 1 1 0 0 0 1 1 2 2 1 1
4 4 3 2 2 5 6 6 6 5 5 5 4 3 2 2 2 2 3 3 3 3 3 4 5 4 4 5 4 4 4 2 3 3 2 2 2 2 2 2 2 2 2 1 1 1 2 2 3 3 3 3 3 2 2 1 0 0 0 1 1 0 1 1 1 1 1 1 2 1 2 1 0 0 0 1 1 0 1 2 1 1 1 1 1
3 2 2 4 5 4 5 5 5 5 5 5 5 4 4 3 2 2 2 2 3 4 4 5 5 5 5 4 4 5 4 4 3 4 2 2 1 1 2 2 2 1 1 1 1 1 2 2 2 2 2 2 2 2 2 1 1 0 1 0 0 1 0 0 0 1 0 1 2 2 2 2 2 2 1 1 1 1 1 1 1 1 1 0 1
1 1 3 4 4 3 2 3 3 4 5 5 5 4 4 3 4 4 3 2 2 3 4 4 5 5 4 3 4 5 5 6 5 5 4 3 2 1 1 2 2 2 1 1 1 1 1 1 2 2 2 2 2 2 2 2 1 1 0 0 1 0 2 2 3 3 2 1 1 1 1 2 2 2 2 1 1 2 2 1 1 0 0 1 1
1 2 3 4 4 3 3 3 4 4 4 4 4 4 4 2 3 3 3 3 4 4 4 4 5 4 3 4 4 4 5 5 5 5 5 4 4 3 3 3 3 3 2 1 1 1 1 1 1 2 2 2 2 2 2 2 1 1 2 2 1 2 3 4 2 4 3 2 1 1 1 1 1 2 1 1 1 2 2 1 1 1 1 1 1
Wind_Direction
338 330 316 283 243 242 204 209 211 188 201 196 214 233 241 212 197 197 183 201 180 178 177 183 179 173 165 169 167 164 165 164 163 158 164 166 175 173 165 170 170 169 155 160 167 166 170 166 165 153 151 151 159 152 154 152 149 150 139 133 135 153 145 139 147 132 124 233 153 165 151 141 166 189 169 179 193 191 170 235 253 249 237 231 230
339 334 331 311 267 242 243 219 216 254 297 254 218 236 245 228 217 189 193 198 178 177 180 183 185 173 170 170 166 164 167 169 163 160 165 166 173 175 168 171 176 168 164 165 168 177 170 165 149 151 164 154 152 157 155 153 158 155 167 158 153 168 178 138 158 146 182 177 140 80 142 188 170 177 189 181 202 188 216 224 227 227 242 254 243
336 336 328 323 291 271 255 235 227 268 279 298 249 231 232 225 211 204 205 192 187 183 177 181 186 179 173 171 168 168 170 168 166 166 171 171 172 176 176 176 175 167 173 174 173 162 165 162 155 150 146 142 160 154 154 162 165 170 176 174 167 175 183 171 141 161 166 202 167 157 174 176 198 181 202 199 172 178 203 220 229 232 230 228 247
337 334 327 321 315 293 245 217 183 123 123 215 225 227 226 222 196 202 205 191 192 190 176 178 182 181 176 174 172 167 162 163 167 176 174 172 171 174 179 184 182 177 178 175 166 167 167 153 161 156 150 147 155 158 163 157 169 176 176 186 173 177 183 177 179 140 167 160 210 189 172 165 202 136 165 159 173 187 216 237 212 237 239 230 233
324 318 314 311 308 303 268 265 155 175 206 218 231 224 221 216 184 151 105 257 228 190 178 175 183 183 180 177 171 166 167 165 170 175 177 177 173 172 178 183 185 184 180 176 172 169 166 165 159 160 159 150 163 161 164 163 157 175 219 181 185 177 163 178 178 153 149 184 161 168 134 168 142 133 167 172 194 211 199 222 238 240 241 236 239
324 311 312 314 306 292 277 267 231 214 214 196 196 216 221 224 219 204 189 198 213 246 191 176 184 187 183 176 172 171 170 170 172 175 174 171 170 171 171 178 184 176 170 158 151 156 152 157 169 169 170 168 174 173 167 169 169 174 192 186 184 167 174 171 180 181 175 163 158 146 178 162 150 176 175 184 168 202 242 257 259 234 233 257 238
327 334 334 334 330 315 287 282 232 232 225 209 218 215 216 219 219 213 197 198 190 208 219 183 191 184 181 173 174 172 171 173 172 173 171 168 170 167 167 168 154 145 139 144 146 140 141 143 158 168 176 186 176 180 173 169 172 185 189 192 183 170 179 180 169 179 176 151 116 135 141 122 127 168 153 174 176 182 206 260 272 217 207 240 274
336 335 336 337 332 332 320 293 248 226 232 234 226 225 205 207 217 218 201 201 194 195 201 190 184 180 173 172 172 168 165 170 178 176 172 170 167 170 161 149 141 135 139 141 145 154 158 161 166 174 180 186 191 185 181 182 180 181 178 173 169 175 179 159 167 171 170 167 152 158 121 139 110 46 88 117 138 248 204 206 255 278 358 249 231
341 342 337 332 326 325 321 312 280 236 220 232 233 223 210 203 207 200 186 175 153 159 149 185 159 149 141 156 158 151 162 173 173 176 171 172 169 167 156 147 142 134 128 137 148 150 163 156 156 170 166 149 143 144 167 184 180 168 176 164 156 158 136 145 148 153 157 157 125 95 118 115 150 152 148 159 178 185 192 177 231 248 265 288 259
345 347 345 335 328 317 318 323 305 258 228 226 232 224 216 208 196 183 183 172 165 187 164 148 183 158 150 134 129 145 159 167 181 178 173 171 173 162 146 150 142 136 134 133 121 103 89 77 105 115 102 100 98 109 116 123 135 158 156 153 142 136 143 139 145 148 139 147 159 138 131 160 162 177 160 198 181 150 123 150 209 293 250 259 256
351 349 348 342 331 331 328 327 322 292 247 231 230 227 222 211 195 188 179 165 157 154 166 153 178 167 157 155 148 145 145 152 158 161 156 159 154 149 149 147 140 137 140 144 144 127 85 67 71 97 97 88 87 90 103 100 96 98 101 112 137 152 150 136 142 148 141 142 134 129 147 173 209 183 179 168 198 186 202 184 210 179 240 262 291
357 358 353 345 342 336 334 329 326 312 265 233 226 226 222 210 199 190 172 153 151 143 167 165 158 152 138 142 147 150 153 135 152 183 155 161 157 142 140 141 142 139 137 134 132 122 114 97 83 79 82 108 103 97 90 92 98 96 92 88 84 70 75 137 145 131 133 120 112 131 131 128 132 155 138 141 142 163 151 178 176 187 193 224 241
358 1 360 356 347 340 333 335 331 325 295 248 224 222 216 209 197 181 176 165 145 151 157 139 142 140 140 143 142 124 140 79 169 179 156 162 146 130 129 132 131 127 127 123 126 127 126 115 98 78 90 104 110 120 117 105 94 93 91 82 68 70 70 66 63 113 132 113 121 129 147 145 120 128 187 168 173 107 138 142 162 175 191 203 234
5 1 1 2 356 347 347 343 337 336 327 286 228 219 211 199 157 142 136 126 132 124 120 116 111 116 112 120 117 86 83 357 118 146 152 145 126 113 114 109 102 101 98 100 107 107 114 126 117 106 93 103 121 116 106 103 102 91 80 75 76 67 66 69 78 83 101 127 130 128 203 158 142 170 188 139 131 170 160 233 201 206 198 224 234
11 5 2 359 359 355 349 349 344 353 352 357 346 29 73 71 78 74 84 89 100 116 129 120 105 96 90 91 93 66 13 22 121 135 142 123 110 106 106 102 99 96 90 87 88 90 85 88 104 107 93 79 47 87 110 109 101 93 85 72 65 56 48 32 24 38 62 67 97 107 128 126 123 150 164 194 213 185 149 86 171 198 227 297 304
14 8 5 1 1 357 352 353 355 5 12 15 28 23 19 30 53 71 83 69 58 58 42 68 84 85 78 78 85 59 31 46 106 130 129 115 105 100 102 102 102 97 88 83 81 81 88 100 103 95 89 72 26 62 86 110 106 102 94 90 84 73 62 45 46 59 75 87 94 110 121 122 129 135 134 158 166 201 103 131 98 72 27 346 283
11 9 7 1 2 359 0 4 6 10 19 28 31 32 27 18 31 42 75 66 62 51 27 40 50 67 68 57 65 62 47 33 80 108 121 115 105 105 100 94 93 91 83 74 78 83 80 84 98 102 87 69 60 87 86 105 100 99 100 94 89 83 73 66 69 71 72 81 89 96 104 109 106 86 88 137 154 134 115 85 75 77 86 353 310
5 8 6 360 0 2 4 9 14 15 26 33 30 37 44 32 25 41 69 75 66 60 59 40 40 47 63 56 41 58 50 30 53 80 90 106 121 120 116 107 100 93 89 72 82 77 75 75 73 82 85 77 83 91 99 103 97 98 100 96 81 70 52 35 63 58 73 87 88 85 79 81 86 73 59 55 56 52 78 78 206 66 61 69 352
2 4 5 4 5 6 6 13 17 19 24 35 43 41 37 47 39 47 63 74 70 67 65 51 40 32 49 60 49 50 50 35 36 56 72 85 107 117 117 113 109 108 108 91 67 78 63 57 60 70 84 77 70 73 85 103 113 124 126 110 101 88 78 81 104 96 90 81 54 76 62 54 54 52 48 44 44 44 46 77 105 78 70 55 52
353 4 10 13 13 12 11 15 18 20 22 29 48 51 44 42 40 66 49 66 74 68 71 67 57 36 37 45 40 35 39 36 26 44 60 66 79 111 122 120 120 120 116 115 107 83 74 69 58 51 65 84 83 74 63 74 97 104 115 112 117 124 162 112 88 103 88 85 80 66 68 54 53 49 40 34 33 38 44 42 39 48 80 88 74
3 8 15 21 20 16 14 15 18 21 19 18 29 62 59 42 20 68 64 57 73 68 71 71 66 50 45 47 45 38 34 36 33 40 46 51 55 80 87 97 110 113 115 104 104 109 101 82 36 65 69 75 82 82 80 72 74 75 70 92 90 133 137 113 92 95 95 90 82 69 60 52 49 46 44 36 23 19 35 43 47 48 60 62 51
12 12 20 24 23 21 18 16 17 21 21 20 28 40 37 63 49 50 66 66 61 55 61 67 66 58 49 46 43 41 36 38 41 39 44 50 49 49 82 84 105 114 96 101 99 92 89 89 80 65 82 85 84 84 84 87 92 93 81 96 104 100 94 86 95 87 79 80 74 62 48 41 37 35 37 40 20 17 26 29 34 50 56 65 76
20 20 23 24 26 23 21 23 23 16 20 24 30 41 41 41 42 53 55 57 68 67 52 57 59 56 54 46 40 40 33 36 37 41 41 49 50 51 54 63 66 82 106 101 89 93 86 92 86 82 88 89 87 88 89 87 78 82 92 89 91 98 101 91 94 87 79 73 73 64 48 34 33 33 33 29 20 9 24 32 41 51 61 55 48
27 30 26 24 22 24 19 22 28 25 19 19 30 38 36 37 44 45 55 61 56 57 54 56 59 52 46 45 33 34 34 38 38 39 43 49 56 58 58 57 61 77 78 79 63 68 67 67 92 95 90 87 82 77 75 77 90 92 91 94 96 95 97 95 83 86 83 74 68 59 50 29 30 43 21 349 337 339 328 38 49 61 74 78 74
32 29 29 27 24 17 27 28 22 28 24 23 28 24 31 31 45 35 47 55 64 65 50 60 64 59 49 42 31 28 26 31 35 28 30 39 46 53 59 59 55 65 74 62 59 58 85 91 86 86 91 91 88 83 74 75 85 91 92 92 90 84 85 83 86 83 76 74 81 72 54 37 42 18 344 342 341 5 23 9 44 52 60 81 85
33 31 30 31 26 21 24 27 27 29 30 29 34 31 30 24 31 29 35 46 51 63 58 54 61 64 66 47 39 28 21 24 28 28 21 22 39 54 68 77 81 80 87 93 95 90 85 86 89 87 81 82 80 77 77 77 75 75 73 73 71 71 71 83 83 87 92 91 78 71 49 14 19 358 360 9 41 30 16 4 26 26 16 39 68
33 33 32 30 32 31 32 26 27 29 29 30 34 33 32 33 31 25 24 29 42 49 47 50 55 56 62 51 48 39 37 30 23 21 18 26 21 32 81 84 91 94 88 80 78 75 74 77 91 93 90 82 81 81 81 77 69 60 53 50 55 57 56 53 71 86 89 87 81 67 52 35 349 31 33 36 41 26 12 24 57 25 24 23 67
31 24 28 33 31 31 35 28 31 39 36 36 33 28 27 30 41 35 21 6 13 48 59 51 44 40 38 30 31 38 32 34 25 4 352 347 8 40 53 60 58 73 86 83 88 93 96 94 82 78 82 76 72 68 60 60 65 63 59 55 56 57 66 83 76 70 63 74 85 87 60 49 50 37 52 52 46 25 8 33 38 42 28 31 54
31 28 23 26 30 29 34 35 35 35 39 44 50 43 31 23 34 47 31 23 29 29 48 59 61 54 56 40 36 25 14 11 356 355 9 28 35 47 56 61 71 74 88 104 102 84 87 79 77 70 70 79 73 71 64 66 58 54 54 51 53 56 52 41 54 50 55 69 66 68 69 68 62 42 48 53 36 29 359 61 44 61 46 63 77
26 22 25 29 15 24 33 33 34 38 38 38 42 51 51 52 46 43 30 25 42 52 66 65 34 4 72 52 33 58 30 342 10 24 38 57 63 69 77 77 79 90 78 68 86 91 76 79 66 78 78 82 81 76 71 71 72 57 49 45 48 53 53 58 62 71 71 77 87 78 60 61 56 47 53 60 44 37 29 43 37 30 62 44 61
18 15 19 24 23 13 30 41 37 46 39 38 39 47 44 40 46 47 47 44 42 38 42 46 49 47 59 91 55 59 78 67 55 48 50 56 65 69 75 84 87 89 87 102 57 72 92 87 81 76 78 79 81 74 65 68 61 66 53 50 47 56 67 72 67 84 71 73 61 64 65 69 70 52 59 41 47 29 32 26 42 39 55 50 52
17 357 359 359 21 43 25 46 56 54 47 45 44 44 45 51 39 37 43 49 46 45 40 36 37 47 53 61 83 62 46 49 57 61 64 65 64 62 59 59 65 76 82 104 87 72 78 94 86 80 82 80 67 53 54 68 62 76 104 77 54 34 47 60 40 62 71 71 72 65 64 64 64 57 53 47 53 47 33 34 36 48 52 53 50
21 1 352 347 353 19 48 44 46 70 67 63 51 45 54 56 58 39 25 41 54 52 47 43 45 50 56 57 60 79 82 68 63 66 70 75 77 76 71 57 50 50 79 71 101 92 83 87 93 82 78 84 70 75 79 85 91 77 68 88 81 50 58 56 51 69 61 68 75 70 60 61 61 64 58 50 63 72 54 50 34 53 47 48 37
38 20 352 348 360 7 7 41 46 45 75 76 76 75 60 59 62 54 48 28 18 29 37 37 37 50 51 50 53 53 50 49 49 53 60 67 73 71 76 69 60 47 69 100 95 103 96 91 76 79 81 87 92 95 89 84 82 90 82 74 76 69 62 57 67 66 70 60 64 62 64 67 76 91 95 94 93 80 58 44 32 47 45 48 45
47 26 11 11 32 15 18 20 64 82 62 89 92 89 75 51 50 50 61 62 56 38 9 13 26 36 44 39 41 46 44 39 35 31 29 32 39 51 60 54 48 38 46 43 66 82 97 98 101 88 91 87 79 88 89 85 81 73 76 76 71 74 68 62 65 63 68 68 75 76 92 90 71 74 78 71 59 55 50 51 50 51 63 47 41
20 43 25 23 25 31 22 32 51 126 132 106 99 90 76 67 65 69 59 61 61 59 38 22 20 28 47 50 46 51 50 46 42 36 27 19 8 31 69 62 66 50 63 42 65 67 72 81 91 87 85 83 82 75 77 80 75 78 74 84 81 75 76 72 70 67 64 69 69 87 109 74 50 87 94 74 77 81 61 51 47 42 48 65 58
7 21 32 25 57 53 47 40 25 55 129 128 117 100 88 73 63 61 56 64 65 52 41 6 8 24 33 31 34 48 52 53 50 46 42 44 51 64 77 66 84 77 65 66 68 78 73 55 68 79 73 84 79 89 90 85 86 88 81 75 75 75 75 82 81 93 90 77 60 53 55 52 49 46 84 91 71 68 58 48 62 56 46 34 31
16 359 5 4 30 74 68 55 49 60 86 87 83 104 112 100 81 61 66 63 54 51 24 359 5 22 28 352 15 31 25 28 35 36 29 33 38 50 55 66 65 74 78 62 58 75 76 56 55 82 86 92 94 95 92 91 88 82 79 69 63 75 95 87 84 79 76 75 62 51 63 51 38 50 67 82 72 56 45 36 46 71 61 49 41
352 1 353 11 21 37 88 82 57 74 77 95 120 129 139 128 101 91 67 56 42 35 10 339 347 335 321 325 347 353 44 33 35 28 26 24 36 42 54 53 62 73 65 60 61 70 81 82 79 77 84 86 92 92 91 88 75 77 88 96 94 84 73 55 64 61 64 62 67 58 69 67 63 62 71 84 69 70 77 68 55 54 57 40 33
354 358 360 1 19 18 25 87 112 89 114 138 149 140 153 168 155 124 113 96 80 22 282 295 278 278 313 338 336 26 66 49 51 34 45 40 39 37 51 60 51 62 71 77 73 84 87 80 80 87 87 87 84 84 78 89 91 106 98 86 89 72 59 64 66 70 73 72 78 66 69 71 75 90 70 61 80 114 94 81 80 80 76 70 37
343 346 13 41 353 53 41 34 60 133 143 137 160 188 230 229 98 109 116 126 157 203 246 267 282 330 2 330 339 21 98 92 50 48 53 58 54 52 49 56 69 67 66 80 85 84 92 97 85 85 79 77 83 97 107 108 109 97 88 94 88 89 80 62 60 72 79 73 67 71 64 61 54 61 66 46 39 114 93 112 123 114 113 94 37
31 17 2 1 15 52 62 36 43 58 92 118 115 169 175 144 124 139 151 161 184 203 238 272 306 349 11 33 60 58 83 81 59 51 28 34 49 54 48 33 35 50 61 66 84 95 88 78 70 68 88 100 111 109 105 102 109 107 108 95 91 95 79 69 62 67 72 81 70 67 59 54 64 61 70 53 100 83 71 60 51 55 41 39 37
57 41 357 353 37 30 56 130 79 67 60 87 123 135 136 137 151 152 156 169 191 204 220 250 313 25 27 28 60 61 84 92 92 59 20 8 10 27 46 50 29 29 34 47 41 67 85 84 73 65 88 114 130 147 134 136 134 114 100 95 99 95 98 94 83 78 74 78 76 64 64 70 77 88 68 52 45 55 48 47 48 43 49 38 30
40 12 2 23 50 47 20 43 79 45 35 40 131 145 140 143 147 153 165 172 198 229 254 274 360 46 17 32 51 64 103 124 131 180 113 360 20 352 15 29 45 51 32 34 39 65 89 97 96 87 75 70 83 89 92 102 105 108 117 113 108 110 114 103 92 83 94 98 104 107 104 89 76 74 65 50 47 59 48 44 34 23 20 29 3
44 24 15 7 10 53 25 344 11 97 63 46 50 83 136 146 168 202 206 203 183 180 249 285 4 167 171 267 283 121 177 164 177 171 184 194 206 269 313 344 27 78 82 75 62 84 92 96 106 107 91 66 57 73 73 69 68 84 112 129 131 132 153 162 173 155 137 155 135 126 118 113 90 84 82 73 74 80 64 44 14 13 20 18 6
44 29 30 20 7 15 37 355 320 38 96 73 52 24 241 196 181 197 224 242 194 178 167 278 243 232 206 216 227 202 201 184 190 188 194 212 198 194 225 269 331 85 105 121 120 124 128 137 133 124 117 106 85 64 58 56 61 60 62 70 97 124 150 160 106 160 199 199 170 130 131 112 98 89 90 91 85 55 62 7 75 74 41 342 343
50 54 55 45 32 4 2 338 324 325 324 72 159 154 266 263 198 190 207 225 282 249 214 231 236 241 221 212 220 225 206 200 195 177 189 196 196 186 179 188 183 167 153 127 135 146 143 139 133 125 126 121 96 82 77 72 67 72 61 57 81 57 34 353 211 212 215 215 191 140 99 87 83 91 100 101 91 58 22 19 7 355 350 345 339
64 71 79 88 56 28 9 11 4 356 345 333 313 284 250 248 244 210 197 165 174 202 226 231 234 236 228 227 212 216 208 210 217 207 171 183 191 175 167 174 188 188 160 134 119 129 135 132 129 123 123 127 126 129 122 110 110 80 66 55 38 34 312 251 206 214 210 200 176 148 127 105 109 91 82 99 93 92 38 5 1 22 354 334 334
81 88 59 33 36 34 32 16 18 14 352 329 329 325 323 328 314 275 246 199 184 200 205 217 225 218 228 225 206 209 201 179 192 209 199 194 194 200 171 156 157 170 176 154 129 112 120 124 123 131 135 141 147 146 137 132 127 111 91 92 7 324 176 45 139 27 354 154 129 115 107 97 92 86 82 87 92 91 86 73 38 4 337 336 12
54 39 35 17 25 349 357 8 21 18 11 11 0 336 330 337 325 315 309 277 240 215 229 238 238 237 231 210 197 197 185 196 198 194 192 187 188 186 188 166 157 162 189 220 205 153 134 135 141 145 144 154 152 153 154 157 147 139 164 224 258 64 50 54 57 35 38 69 80 112 109 106 97 89 81 81 84 82 67 52 42 24 30 14 29
358 349 352 351 340 328 347 359 0 1 20 12 7 8 358 325 298 273 261 255 256 251 230 230 239 227 209 216 201 198 215 218 204 188 174 180 178 174 187 191 182 177 175 172 189 187 175 165 170 171 168 166 165 169 171 172 168 182 200 195 122 56 42 37 30 10 19 47 117 117 103 122 126 97 70 60 56 67 56 55 54 40 26 17 10